This is the latest recevied weather packets stored in our database for station/object KE6RLG. If no packets are shown the sender has not sent any weather packets the latest 10 day(s).
| Time | Temp. | Humidity | Pressure | Rain* | Wind** | Luminosity | Snow |
|---|---|---|---|---|---|---|---|
| 1777554920 | 13.89° C | 88% | 1012.7 hPa | 0 mm | - | 4 W/m² | - |
| 1777552820 | 13.89° C | 89% | 1012.7 hPa | 0 mm | - | 0 W/m² | - |
| 1777551321 | 13.89° C | 90% | 1012.8 hPa | 0 mm | - | 0 W/m² | - |
| 1777550721 | 13.89° C | 90% | 1012.8 hPa | 0 mm | - | 0 W/m² | - |
| 1777548921 | 13.89° C | 91% | 1013 hPa | 0 mm | - | 0 W/m² | - |
| 1777548621 | 13.89° C | 91% | 1013 hPa | 0 mm | - | 0 W/m² | - |
| 1777546822 | 13.33° C | 92% | 1013.1 hPa | 0 mm | - | 0 W/m² | - |
| 1777539023 | 12.22° C | 90% | 1014.2 hPa | 0 mm | - | 0 W/m² | - |
| 1777537844 | 11.67° C | 90% | 1014.4 hPa | 0 mm | - | 0 W/m² | - |
| 1777536324 | 11.67° C | 89% | 1014.5 hPa | 0 mm | - | 0 W/m² | - |
| 1777535124 | 11.67° C | 89% | 1014.6 hPa | 0 mm | - | 0 W/m² | - |
| 1777534825 | 12.22° C | 89% | 1014.5 hPa | 0 mm | - | 0 W/m² | - |
| 1777534225 | 12.22° C | 89% | 1014.5 hPa | 0 mm | - | 0 W/m² | - |
| 1777533925 | 12.22° C | 89% | 1014.5 hPa | 0 mm | - | 0 W/m² | - |
| 1777532125 | 12.22° C | 89% | 1014.4 hPa | 0 mm | - | 0 W/m² | - |
| 1777527021 | 13.33° C | 87% | 1015 hPa | 0 mm | - | 0 W/m² | - |
| 1777524619 | 14.44° C | 86% | 1015 hPa | 0 mm | - | 0 W/m² | - |
| 1777520760 | 15° C | 81% | 1014.6 hPa | 0 mm | - | 0 W/m² | - |
| 1777518017 | 16.11° C | 73% | 1014.3 hPa | 0 mm | - | 0 W/m² | - |
| 1777517117 | 16.11° C | 72% | 1014 hPa | 0 mm | - | 2 W/m² | - |
| 1777516817 | 16.11° C | 72% | 1014 hPa | 0 mm | - | 4 W/m² | - |
| 1777516517 | 16.67° C | 72% | 1013.9 hPa | 0 mm | - | 7 W/m² | - |
| 1777515921 | 16.67° C | 70% | 1013.7 hPa | 0 mm | - | 14 W/m² | - |
| 1777515018 | 16.67° C | 69% | 1013.7 hPa | 0 mm | - | 27 W/m² | - |
| 1777514738 | 16.67° C | 69% | 1013.7 hPa | 0 mm | - | 32 W/m² | - |
* Rain latest hour (hover to see other rain measurements)
** Current wind speed in m/s (hover to see current wind gust speed)